Content
SEND FEEDBACK

Daily
Averages
Monthly
Summary
Mexico

CANCUN, QUINTANA ROO


Home > North America > Mexico > Quintana Roo
Elevation: 9 meters     Latitude: 21 09N     Longitude: 086 49W

WEATHER
 
SELECT A DAY
Number of Records: 167,246;   Date Range: 1/1/95 - 11/27/14
 
SHARE

PRINT THIS DATA

[ ← Previous Day ]
WEATHER ALMANAC - 18 AUGUST, 2013
[ Next Day → ]
[ °F ]   °C
Weather ElementAverageHighLow
Temperature28 °C31 °C (11:44 am)24 °C (5:48 am)
Dewpoint24.7 °C26 °C (9:49 am)23 °C (5:48 am)
Humidity82.7 %94 % (1:46 am)62 % (3:43 pm)
Barometer1014.6 hPa1015.2 hPa (9:49 am)1013.2 hPa (5:43 pm)
Wind Speed8.7 km/h20.4 km/h (12:40 pm)
Weather ElementAverage
Visibility10.8 km
Wind DirectionENE (83.9 °)

Weather ElementTotal
Precipitation---
Cooling Degree Days9.2 (Base 18.3)
Growing Degree Days17.5 (Base 10)
Averaged from 23 records on 18 August, 2013
WEATHER CONDITIONS BREAKOUT
WIND DIRECTION BREAKOUT
WEATHER BY HOUR - 18 AUGUST, 2013
[ °F ]   °C
Local TimeTemperatureDewpointHumidityBarometerVisibilityWind DirectionWind SpeedGust SpeedPrecipitationEventsConditions
1:46 AM26 °C25 °C94 %1014.6 hPa11.3 kmENE (60°)7.4 km/hScattered Clouds
2:47 AM26 °C25 °C94 %1014.2 hPa9.7 kmENE (70°)3.7 km/hScattered Clouds
3:45 AM26 °C24 °C89 %1014.2 hPa9.7 kmENE (70°)5.6 km/hScattered Clouds
4:44 AM25 °C24 °C94 %1013.9 hPa9.7 kmENE (70°)3.7 km/hScattered Clouds
5:48 AM24 °C23 °C94 %1013.9 hPa9.7 kmCalmScattered Clouds
6:43 AM24 °C23 °C94 %1014.2 hPa9.7 kmCalmScattered Clouds
7:43 AM26 °C25 °C94 %1014.6 hPa9.7 kmCalmScattered Clouds
8:40 AM29 °C25 °C79 %1014.6 hPa9.7 kmEast (100°)11.1 km/hScattered Clouds
9:49 AM30 °C26 °C79 %1015.2 hPa11.3 kmEast (100°)14.8 km/hMostly Cloudy
10:40 AM30 °C25 °C74 %1014.9 hPa11.3 kmESE (120°)18.5 km/hMostly Cloudy
11:44 AM31 °C25 °C70 %1015.2 hPa11.3 kmESE (110°)18.5 km/hMostly Cloudy
12:40 PM31 °C25 °C70 %1015.2 hPa11.3 kmSE (130°)20.4 km/hScattered Clouds
1:45 PM31 °C24 °C66 %1014.6 hPa11.3 kmEast (100°)14.8 km/hScattered Clouds
2:40 PM31 °C25 °C70 %1014.2 hPa11.3 kmEast (90°)14.8 km/hScattered Clouds
3:43 PM31 °C23 °C62 %1013.9 hPa11.3 kmSE (130°)18.5 km/hScattered Clouds
4:42 PM31 °C25 °C70 %1013.5 hPa11.3 kmEast (90°)7.4 km/hScattered Clouds
5:43 PM30 °C25 °C74 %1013.2 hPa11.3 kmEast (80°)14.8 km/hScattered Clouds
6:47 PM29 °C25 °C79 %1013.5 hPa11.3 kmEast (90°)9.3 km/hScattered Clouds
7:42 PM28 °C25 °C84 %1014.6 hPa11.3 kmENE (70°)5.6 km/hScattered Clouds
8:42 PM27 °C25 °C89 %1014.9 hPa11.3 kmNE (50°)3.7 km/hScattered Clouds
9:49 PM26 °C25 °C94 %1014.9 hPa11.3 kmNorth (360°)3.7 km/hScattered Clouds
10:48 PM26 °C25 °C94 %1015.2 hPa11.3 kmNE (40°)3.7 km/hScattered Clouds
11:47 PM26 °C25 °C94 %1014.9 hPa11.3 kmCalmScattered Clouds
Hourly data recorded from MMUN, located 0 kilometers away from Cancun, Quintana Roo







STORIES FROM OUR PARTNERS